This is the latest recevied weather packets stored in our database for station/object N3WMC. If no packets are shown the sender has not sent any weather packets the latest 10 day(s).
| Time | Temp. | Humidity | Pressure | Rain* | Wind** | Luminosity | Snow |
|---|---|---|---|---|---|---|---|
| 1777704310 | 0.56° C | 98% | 1016.5 hPa | 0 mm | - | 0 W/m² | - |
| 1777704007 | 1.11° C | 98% | 1016.3 hPa | 0 mm | - | 0 W/m² | - |
| 1777703704 | 0.56° C | 98% | 1016.5 hPa | 0 mm | - | 0 W/m² | - |
| 1777703402 | 0.56° C | 98% | 1016.5 hPa | 0 mm | - | 0 W/m² | - |
| 1777703098 | 0.56° C | 98% | 1016.5 hPa | 0 mm | - | 0 W/m² | - |
| 1777702797 | 0.56° C | 98% | 1016.5 hPa | 0 mm | - | 0 W/m² | - |
| 1777702495 | 0.56° C | 98% | 1016.7 hPa | 0 mm | - | 0 W/m² | - |
| 1777702190 | 1.11° C | 98% | 1016.7 hPa | 0 mm | - | 0 W/m² | - |
| 1777701886 | 1.11° C | 98% | 1016.7 hPa | 0 mm | - | 0 W/m² | - |
| 1777701583 | 1.11° C | 98% | 1016.8 hPa | 0 mm | - | 0 W/m² | - |
| 1777701281 | 1.11° C | 98% | 1016.8 hPa | 0 mm | - | 0 W/m² | - |
| 1777700975 | 1.11° C | 98% | 1016.7 hPa | 0 mm | - | 0 W/m² | - |
| 1777700673 | 1.11° C | 98% | 1016.8 hPa | 0 mm | - | 0 W/m² | - |
| 1777700370 | 1.11° C | 98% | 1016.6 hPa | 0 mm | - | 0 W/m² | - |
| 1777700067 | 1.67° C | 98% | 1016.6 hPa | 0 mm | - | 0 W/m² | - |
| 1777699765 | 1.67° C | 98% | 1016.6 hPa | 0 mm | - | 0 W/m² | - |
| 1777699463 | 1.67° C | 97% | 1016.8 hPa | 0 mm | - | 0 W/m² | - |
| 1777699161 | 1.67° C | 98% | 1016.9 hPa | 0 mm | - | 0 W/m² | - |
| 1777698859 | 1.67° C | 97% | 1016.9 hPa | 0 mm | - | 0 W/m² | - |
| 1777698555 | 2.22° C | 97% | 1016.8 hPa | 0 mm | - | 0 W/m² | - |
| 1777698252 | 1.67° C | 97% | 1016.7 hPa | 0 mm | - | 0 W/m² | - |
| 1777697949 | 2.22° C | 97% | 1016.7 hPa | 0 mm | - | 0 W/m² | - |
| 1777697646 | 2.22° C | 97% | 1016.8 hPa | 0 mm | - | 0 W/m² | - |
| 1777697343 | 2.78° C | 97% | 1016.9 hPa | 0 mm | - | 0 W/m² | - |
| 1777697038 | 2.78° C | 97% | 1016.8 hPa | 0 mm | - | 0 W/m² | - |
* Rain latest hour (hover to see other rain measurements)
** Current wind speed in m/s (hover to see current wind gust speed)